Volver al catálogo

STARLINK-5814

ActivoComunicacionesVLEO
NORAD 55777·PAYLOAD·🇺🇸 United States

Lanzado Mar 3, 2023 desde Vandenberg Space Force Base

Loading…

Próximos Pases (próximas 24 horas)

TLE

ActualizadoSource: CelesTrak SupGP

Época: Sep 15, 2026, 02:29 UTC

1 55777C 23028AN  26258.10395833 -.00002289  00000+0 -19184-3 0  2587
2 55777  70.0000 106.7583 0002526 276.7800 258.1318 14.98338174    12

Sigue STARLINK-5814 en tiempo real con AllMySat

Download on the App Store